Flag for Italy Weather past 2 weeks in Venice, Italy

Now
86 °F

Sunny.


Feels Like: 92 °F
Forecast: 71 / 88 °F
Wind: 10 mph from Southeast

Location: Venice / Tessera

Current Time: Jul 4, 2015 at 2:40:03 PM

Latest Report: Jul 4, 2015 at 1:50 PM


Visibility: 10 mi

Pressure: 30.15 "Hg

Humidity: 62%

Dew point: 72 °F

Location of VeniceLocation

Historic Weather in Venice — Graph

°F

Venice temperature yesterday

Maximum temperature yesterday: 88 °F (at 1:20 PM)
Minimum temperature yesterday: 70 °F (at 6:50 AM)
Average temperature yesterday: 80 °F

Past Weeks' High & Low Weather Summary

 TemperatureHumidityPressure
High88 °F (Jul 3, 1:20 PM)94% (Jun 23, 7:50 PM)30.24 "Hg (Jun 23, 7:50 PM)
Low57 °F (Jun 24, 3:50 AM)41% (Jun 24, 6:50 PM)29.71 "Hg (Jun 23, 8:20 AM)
Average72 °F66%30.05 "Hg
* Reported Jun 19 1:20 PM — Jul 4 1:20 PM, Venice, Weather by CustomWeather, © 2015

Note: Actual official high and low records may vary slightly from our data, if they occured in-between our weather recording intervals... More about our weather records

Advertising

Venice weather history for previous 24 hours

 ConditionsComfort  
Time TempWeatherWind HumidityBarometerVisibility
1:20 PM
Sat, Jul 4
86 °FSunny.9 mph59%30.15 "Hg10 mi
12:50 PM84 °FSunny.8 mph58%30.18 "Hg10 mi
12:20 PM84 °FPassing clouds.8 mph62%30.18 "HgN/A
11:50 AM84 °FPassing clouds.8 mph58%30.18 "HgN/A
11:20 AM84 °FPassing clouds.7 mph58%30.18 "HgN/A
10:50 AM84 °FPassing clouds.6 mph55%30.18 "HgN/A
10:20 AM82 °FPassing clouds.6 mph58%30.18 "HgN/A
9:50 AM81 °FPassing clouds.7 mph62%30.21 "HgN/A
9:20 AM79 °FPassing clouds.7 mph70%30.21 "HgN/A
8:50 AM77 °FPassing clouds.7 mph74%30.21 "HgN/A
8:20 AM77 °FPassing clouds.8 mph74%30.21 "HgN/A
7:50 AM75 °FPassing clouds.8 mph74%30.21 "HgN/A
7:20 AM73 °FSunny.8 mph78%30.21 "Hg10 mi
6:50 AM72 °FSunny.8 mph83%30.21 "Hg10 mi
6:20 AM72 °FClear.5 mph83%30.21 "Hg10 mi
5:50 AM72 °FClear.7 mph88%30.21 "Hg10 mi
5:20 AM72 °FClear.6 mph88%30.21 "Hg10 mi
4:50 AM72 °FPassing clouds.3 mph88%30.21 "HgN/A
4:20 AM73 °FClear.6 mph83%30.21 "Hg10 mi
3:50 AM75 °FPassing clouds.7 mph78%30.21 "HgN/A
3:20 AM77 °FClear.9 mph74%30.18 "Hg10 mi
2:50 AM75 °FClear.7 mph78%30.21 "Hg10 mi
2:20 AM75 °FClear.8 mph78%30.21 "Hg10 mi
1:20 AM77 °FClear.10 mph74%30.21 "Hg10 mi
12:50 AM75 °FClear.7 mph78%30.21 "Hg10 mi
12:20 AM75 °FClear.9 mph78%30.24 "Hg10 mi
11:50 PM
Fri, Jul 3
75 °FClear.6 mph78%30.24 "Hg10 mi
11:20 PM75 °FPassing clouds.8 mph78%30.24 "HgN/A
10:50 PM75 °FClear.9 mph83%30.24 "Hg10 mi
10:20 PM79 °FPassing clouds.9 mph74%30.24 "HgN/A
9:50 PM81 °FSunny.9 mph74%30.21 "Hg10 mi
9:20 PM81 °FSunny.5 mph70%30.21 "Hg10 mi
8:50 PM82 °FSunny.1 mph66%30.18 "Hg10 mi
8:20 PM82 °FSunny.5 mph66%30.18 "Hg10 mi
7:50 PM81 °FPassing clouds.5 mph74%30.18 "HgN/A
7:20 PM82 °FPassing clouds.6 mph70%30.21 "HgN/A
6:50 PM81 °FScattered clouds.8 mph74%30.18 "HgN/A
6:20 PM82 °FLight rain. Scattered clouds.12 mph66%30.18 "HgN/A
5:50 PM84 °FScattered clouds.6 mph62%30.24 "HgN/A
5:20 PM84 °FSunny.7 mph55%30.24 "Hg10 mi
4:50 PM84 °FPassing clouds.8 mph55%30.24 "HgN/A
4:20 PM86 °FSunny.8 mph49%30.21 "Hg10 mi
3:50 PM88 °FSunny.10 mph49%30.18 "Hg10 mi
3:20 PM88 °FSunny.8 mph52%30.18 "Hg10 mi
2:50 PM88 °FSunny.8 mph49%30.21 "Hg10 mi
2:20 PM88 °FPassing clouds.8 mph49%30.21 "HgN/A
Weather by CustomWeather, © 2015

See weather overviewHow to use our weather pages